TimeEST,TemperatureF,Dew PointF,Humidity,Sea Level PressureIn,VisibilityMPH,Wind Direction,Wind SpeedMPH,Gust SpeedMPH,PrecipitationIn,Events,Conditions,WindDirDegrees,DateUTC
12:54 AM,19.9,5.0,52,30.32,10.0,West,11.5,-,N/A,,Clear,280,2013-02-02 05:54:00
1:54 AM,19.9,5.0,52,30.34,10.0,WNW,8.1,-,N/A,,Clear,290,2013-02-02 06:54:00
2:54 AM,19.0,6.1,57,30.35,10.0,West,10.4,-,N/A,,Clear,270,2013-02-02 07:54:00
3:54 AM,19.0,3.9,52,30.33,10.0,WNW,10.4,-,N/A,,Clear,290,2013-02-02 08:54:00
4:54 AM,18.0,3.0,52,30.33,10.0,Variable,3.5,-,N/A,,Clear,0,2013-02-02 09:54:00
5:54 AM,17.1,3.9,56,30.34,10.0,West,5.8,-,N/A,,Clear,280,2013-02-02 10:54:00
6:54 AM,17.6,3.2,53,30.34,10.0,West,5.8,-,N/A,,Clear,270,2013-02-02 11:54:00
7:54 AM,19.0,3.9,52,30.35,10.0,West,4.6,-,N/A,,Clear,270,2013-02-02 12:54:00
8:54 AM,21.0,3.9,48,30.35,10.0,West,9.2,-,N/A,,Clear,270,2013-02-02 13:54:00
9:54 AM,23.0,3.9,44,30.32,10.0,SW,9.2,-,N/A,,Clear,230,2013-02-02 14:54:00
10:54 AM,25.0,5.0,43,30.30,10.0,SW,9.2,-,N/A,,Clear,230,2013-02-02 15:54:00
11:54 AM,26.1,5.0,41,30.27,10.0,WSW,11.5,-,N/A,,Clear,240,2013-02-02 16:54:00
12:54 PM,28.0,5.0,38,30.23,10.0,SW,9.2,20.7,N/A,,Clear,230,2013-02-02 17:54:00
1:54 PM,30.0,5.0,35,30.20,10.0,West,13.8,-,N/A,,Clear,280,2013-02-02 18:54:00
2:54 PM,28.9,6.1,38,30.17,10.0,SW,11.5,17.3,N/A,,Partly Cloudy,230,2013-02-02 19:54:00
3:54 PM,28.9,8.1,41,30.16,10.0,SW,11.5,17.3,N/A,,Overcast,220,2013-02-02 20:54:00
4:54 PM,28.0,8.1,43,30.14,10.0,SW,10.4,-,N/A,,Overcast,220,2013-02-02 21:54:00
5:54 PM,28.0,9.0,45,30.13,10.0,WSW,13.8,18.4,N/A,,Overcast,250,2013-02-02 22:54:00
6:54 PM,27.0,10.9,51,30.12,10.0,SW,12.7,-,N/A,,Overcast,230,2013-02-02 23:54:00
7:54 PM,26.1,16.0,66,30.13,8.0,SSW,10.4,-,N/A,,Overcast,210,2013-02-03 00:54:00
8:42 PM,24.8,19.4,80,30.12,2.5,SW,5.8,-,0.00,Snow,Light Snow,220,2013-02-03 01:42:00
8:51 PM,24.8,19.4,80,30.12,2.0,SSW,3.5,-,0.01,Snow,Light Snow,200,2013-02-03 01:51:00
8:54 PM,25.0,21.0,85,30.13,2.0,SSW,3.5,-,0.01,Snow,Light Snow,200,2013-02-03 01:54:00
9:01 PM,24.8,21.2,86,30.12,1.8,SW,5.8,-,0.00,Snow,Light Snow,220,2013-02-03 02:01:00
9:54 PM,25.0,21.0,85,30.11,2.5,South,4.6,-,0.02,Snow,Light Snow,190,2013-02-03 02:54:00
10:16 PM,24.8,21.2,86,30.10,1.8,Calm,Calm,-,0.00,Snow,Light Snow,0,2013-02-03 03:16:00
10:29 PM,24.8,21.2,86,30.09,2.5,South,4.6,-,0.00,Snow,Light Snow,190,2013-02-03 03:29:00
10:47 PM,24.8,21.2,86,30.08,2.0,Calm,Calm,-,0.01,Snow,Light Snow,0,2013-02-03 03:47:00
10:54 PM,25.0,21.9,88,30.09,2.0,Calm,Calm,-,0.01,Snow,Light Snow,0,2013-02-03 03:54:00
11:13 PM,24.8,21.2,86,30.08,3.0,Calm,Calm,-,0.00,Snow,Light Snow,0,2013-02-03 04:13:00
11:40 PM,24.8,21.2,86,30.06,2.5,Calm,Calm,-,0.00,Snow,Light Snow,0,2013-02-03 04:40:00
11:54 PM,25.0,21.9,88,30.07,2.5,Calm,Calm,-,0.01,Snow,Light Snow,0,2013-02-03 04:54:00